Volver al catálogo

STARLINK-36411

ActivoComunicacionesSSO
NORAD 67608·PAYLOAD·🇺🇸 United States

Lanzado Jan 29, 2026 desde Vandenberg Space Force Base

Loading…

Próximos Pases (próximas 24 horas)

TLE

ActualizadoSource: CelesTrak SupGP

Época: Sep 14, 2026, 20:56 UTC

1 67608C 26018V   26257.87270833 -.00031362  00000+0 -97359-3 0  2573
2 67608  97.2852 321.3420 0000575 103.8779 245.0512 15.33454919    13

Sigue STARLINK-36411 en tiempo real con AllMySat

Download on the App Store